Location: Automata Internet Observatory
(34.5060°N, 117.9090°W)
Time: 03:52:38
(UTC-07:00)

ISS - Visible Passes

Search period start: 21 May 2018 00:00
Search period end: 31 May 2018 00:00
Orbit: 402 x 407 km, 51.6° (Epoch: 22 May)

Date Brightness Start Highest point End Pass type
(mag) Time Alt. Az. Time Alt. Az. Time Alt. Az.
21 May -2.4 04:18:33 10° NNW 04:21:40 40° NE 04:24:44 10° ESE visible
21 May -3.9 20:55:40 10° SW 20:58:56 87° NW 21:02:12 10° NE visible
21 May -0.3 22:34:38 10° NW 22:35:50 12° NNW 22:37:03 10° N visible
22 May -1.2 03:26:45 10° NNW 03:29:22 22° NE 03:31:59 10° E visible
22 May -3.0 05:02:57 10° WNW 05:05:51 30° SW 05:08:44 10° SSE visible
22 May -0.8 21:41:02 10° WNW 21:43:24 18° NNW 21:45:45 10° NNE visible
23 May -0.5 02:35:13 10° N 02:36:57 14° NNE 02:38:42 10° ENE visible
23 May -4.0 04:10:30 10° NW 04:13:44 69° SW 04:16:58 10° SE visible
23 May -1.8 20:48:05 10° WSW 20:51:02 31° NW 20:54:00 10° NNE visible
25 May -0.7 20:41:14 10° WNW 20:43:16 15° NNW 20:45:19 10° N visible
